Terug naar catalogus

SPIP

ActiefWetenschapSSO
NORAD 58298·PAYLOAD·🇧🇪 Belgium

Gelanceerd Nov 11, 2023 vanaf Vandenberg Space Force Base

Loading…

Volgende Passages (komende 24 uur)

TLE

VersSource: Space-Track

Epoch: Sep 14, 2026, 11:26 UTC

1 58298U 23174AU  26257.47701660  .00003521  00000-0  13034-3 0  9997
2 58298  97.3778 333.1422 0008030 222.2735 137.7887 15.28305055158411

Volg SPIP in realtime met AllMySat

Download on the App Store